[[{"header":{"parameterUnit":"m.s-1","parameterCategory":1,"la1":30.2991,"la2":30.254,"lo1":-89.0895,"lo2":-89.0444,"dy":0.0017,"dx":0.0017,"nx":28,"ny":28,"refTime":"2025-05-17T03:00:00:Z","depth":0,"parameterNumber":2,"parameterNumberName":"U-component_of_WINDS"},"data":[0,0,0,0,0,0,0,0,0,0,0,0,0,0,0,0,0,0,0,0,0,0,0,0,0,0,0,0,0,0,0,0,0,0,0,0,0,0,0,0,0,0,0,0,0,0,0,0,0,0,0,0,0,0,0,0,0,0,1.4447,1.4448,0,1.4527,1.4528,1.4529,1.4552,1.4551,1.4551,1.4551,1.4634,1.4637,1.4639,0,0,0,0,0,0,0,0,0,0,0,0,0,1.4315,1.4317,1.4447,1.4448,1.4449,1.4527,1.4528,1.4529,1.4552,1.4551,1.4551,1.455,1.4633,1.4636,1.464,0,0,0,0,0,0,0,0,0,0,0,0,0,1.4381,1.4318,1.4447,1.447,1.4472,1.4527,1.4528,1.4529,1.4552,1.4551,1.4551,1.455,1.4632,1.4636,1.464,1.4677,0,0,1.4652,1.4654,0,0,0,0,0,0,0,0,1.4377,1.4386,1.4465,1.4468,1.4471,1.4529,1.4512,1.4579,1.4552,1.4522,1.4551,1.455,1.46,1.4606,1.4623,1.4681,1.4685,1.4652,1.4655,1.4656,1.4658,0,0,0,0,0,0,0,1.4373,1.4383,1.4479,1.4466,1.447,1.4476,1.4485,1.4525,1.4564,1.4524,1.4526,1.4535,1.4601,1.4619,1.4625,1.4686,1.4652,1.4656,1.4658,1.466,1.478,1.478,0,0,0,0,0,0,1.4364,1.4379,1.4476,1.4481,1.4422,1.4479,1.4489,1.4511,1.4563,1.457,1.4536,1.4536,1.4613,1.462,1.4628,1.4675,1.4656,1.466,1.4662,1.4779,1.478,1.4781,0,0,0,0,0,0,1.4361,1.4372,1.4473,1.443,1.4444,1.4482,1.4507,1.4513,1.4531,1.4572,1.4579,1.4547,1.4612,1.4622,1.4665,1.4678,1.4662,1.4665,1.4778,1.4779,1.478,1.477,0,0,0,0,0,0,1.4357,1.4371,1.4386,1.443,1.4446,1.4508,1.4508,1.4515,1.4537,1.4538,1.4584,1.4591,1.4613,1.4659,1.4669,1.4684,1.4669,1.4777,1.4778,1.478,1.4769,1.4771,1.4772,0,0,0,0,0,1.4352,1.438,1.4386,1.4398,1.4464,1.4509,1.4517,1.4541,1.4538,1.4553,1.458,1.4589,1.4675,1.4663,1.4674,1.4691,1.4776,1.4778,1.478,1.4769,1.477,1.4772,0,0,0,0,0,0,1.4336,1.4386,1.4394,1.4436,1.4468,1.4512,1.4532,1.4543,1.4576,1.4576,1.4605,1.4615,1.4655,1.4677,1.4663,1.473,1.4726,1.473,1.4714,1.4716,1.4717,1.4711,1.4672,0,0,0,0,0,1.4337,1.4368,1.4411,1.4444,1.446,1.4493,1.4513,1.4529,1.4563,1.4577,1.4606,1.4639,1.4674,1.4696,1.473,1.4773,1.4783,1.4789,1.4791,1.4792,1.4795,1.4819,1.4823,1.4787,1.4787,1.4787,0,0,1.434,1.4371,1.439,1.4442,1.4468,1.45,1.4504,1.4538,1.4562,1.4582,1.4624,1.4647,1.4686,1.4728,1.4748,1.4748,1.4807,1.4794,1.4794,1.4797,1.4821,1.4825,1.4828,1.4788,1.4788,1.4788,0,0,1.4362,1.4389,1.442,1.4446,1.4486,1.4508,1.4515,1.4558,1.4574,1.4616,1.4632,1.4661,1.472,1.4747,1.4768,1.4801,1.4811,1.4811,1.4818,1.4841,1.4844,1.4847,1.4858,1.4862,1.4814,1.4814,1.4814,0,1.4361,1.441,1.4434,1.4467,1.449,1.4509,1.4541,1.4565,1.4614,1.4629,1.4628,1.4702,1.473,1.4779,1.4787,1.4803,1.4813,1.4806,1.4841,1.4844,1.4847,1.4859,1.4863,1.4814,1.4814,1.4814,1.4814,0,1.4406,1.444,1.446,1.4506,1.4531,1.4564,1.4594,1.4616,1.463,1.4652,1.4695,1.4728,1.477,1.4782,1.4796,1.4834,1.4832,1.4836,1.4833,1.485,1.4861,1.4866,1.4813,1.4813,1.4814,1.4814,0,0,1.442,1.4479,1.4486,1.4508,1.4553,1.458,1.4613,1.4653,1.4671,1.4705,1.4733,1.4783,1.4786,1.481,1.4828,1.4848,1.4871,1.4849,1.4851,1.4852,1.4915,1.4912,1.4917,1.4879,1.4879,1.488,1.4912,0,1.4448,1.4507,1.453,1.4579,1.4611,1.4629,1.4658,1.4689,1.4711,1.4741,1.4765,1.48,1.4802,1.4816,1.4838,1.4864,1.4884,1.4862,1.4906,1.4907,1.4895,1.4922,1.4919,1.4948,1.4916,1.4917,1.4918,0,1.4488,1.4521,1.4572,1.4614,1.4628,1.4654,1.4692,1.4721,1.4756,1.4771,1.4798,1.4814,1.485,1.4844,1.4894,1.4878,1.4898,1.4914,1.4915,1.492,1.4913,1.4928,1.4957,1.4961,1.4925,1.4924,1.4924,0,1.4492,1.455,1.4588,1.4606,1.4655,1.4673,1.4694,1.4729,1.4752,1.4786,1.4801,1.4838,1.4859,1.4888,1.4914,1.4907,1.4962,1.4958,1.4975,1.4974,1.4985,1.4984,1.5018,1.4998,1.4998,1.4998,1.4997,0,1.4521,1.4552,1.4591,1.4615,1.465,1.4677,1.4711,1.4734,1.4765,1.4794,1.4812,1.4839,1.4871,1.4902,1.4922,1.4961,1.497,1.4983,1.4988,1.4981,1.498,1.4994,1.4993,1.4999,1.4998,1.4998,1.4998,0,1.4532,1.456,1.4603,1.4646,1.4657,1.4681,1.4719,1.4742,1.4765,1.4801,1.4811,1.4846,1.4884,1.4912,1.4961,1.4975,1.5015,1.5021,1.5003,1.5006,1.5021,1.5019,1.5065,1.5072,1.5047,1.5047,1.5047,0,1.4548,1.4572,1.4618,1.4638,1.4659,1.4692,1.4715,1.4742,1.4766,1.4808,1.4827,1.4865,1.4898,1.4956,1.4987,1.5024,1.5031,1.5044,1.5036,1.5029,1.5031,1.5029,1.5032,1.5045,1.5045,1.5045,1.5045,0,1.4574,1.4586,1.4619,1.4656,1.4682,1.4713,1.4744,1.476,1.4793,1.4818,1.4856,1.4881,1.4931,1.4969,1.5009,1.5032,1.5044,1.5048,1.5053,1.5047,1.5035,1.5042,1.5006,1.5046,1.5046,1.5046,1.5046,1.5046,1.4588,1.461,1.4646,1.4681,1.4708,1.4736,1.4761,1.4786,1.4818,1.486,1.4875,1.4914,1.495,1.5005,1.5028,1.5059,1.506,1.5068,1.507,1.5072,1.5071,1.503,1.5067,1.5067,1.5067,1.5067,1.5067,0,1.4615,1.4639,1.4671,1.4713,1.4741,1.475,1.4785,1.4808,1.4842,1.4874,1.4905,1.4949,1.4986,1.502,1.5058,1.5077,1.5084,1.5086,1.5085,1.509,1.5069,1.506,1.508,1.508,1.508,1.508,1.508,1.508,1.4632,1.467,1.4687,1.4739,1.4762,1.4801,1.482,1.4846,1.4872,1.492,1.4951,1.4972,1.5005,1.5046,1.508,1.5089,1.5103,1.5104,1.5114,1.5093,1.5092,1.509,1.5082,1.5106,1.5107,1.5133,1.5133,1.5133]},{"header":{"parameterUnit":"m.s-1","parameterCategory":1,"la1":30.2991,"la2":30.254,"lo1":-89.0895,"lo2":-89.0444,"dy":0.0017,"dx":0.0017,"nx":28,"ny":28,"refTime":"2025-05-17T03:00:00:Z","depth":0,"parameterNumber":3,"parameterNumberName":"V-component_of_WINDS"},"data":[0,0,0,0,0,0,0,0,0,0,0,0,0,0,0,0,0,0,0,0,0,0,0,0,0,0,0,0,0,0,0,0,0,0,0,0,0,0,0,0,0,0,0,0,0,0,0,0,0,0,0,0,0,0,0,0,0,0,2.7547,2.7548,0,2.7595,2.7595,2.7596,2.7603,2.7602,2.7602,2.7602,2.7647,2.7649,2.765,0,0,0,0,0,0,0,0,0,0,0,0,0,2.7459,2.7461,2.7547,2.7548,2.7548,2.7595,2.7595,2.7596,2.7603,2.7602,2.7602,2.7601,2.7646,2.7648,2.765,0,0,0,0,0,0,0,0,0,0,0,0,0,2.7501,2.7462,2.7547,2.7557,2.7559,2.7595,2.7595,2.7596,2.7603,2.7602,2.7602,2.7601,2.7646,2.7648,2.7651,2.7678,0,0,2.7658,2.7659,0,0,0,0,0,0,0,0,2.7499,2.7504,2.7555,2.7557,2.7558,2.7592,2.7581,2.7624,2.7603,2.7586,2.7602,2.7601,2.7629,2.7633,2.7643,2.768,2.7682,2.7658,2.766,2.7661,2.7661,0,0,0,0,0,0,0,2.7496,2.7502,2.7566,2.7556,2.7558,2.7559,2.7564,2.7589,2.761,2.7588,2.7588,2.7594,2.763,2.7641,2.7644,2.7683,2.7658,2.766,2.7662,2.7663,2.7746,2.7747,0,0,0,0,0,0,2.7492,2.75,2.7564,2.7567,2.7527,2.7561,2.7567,2.7582,2.761,2.7614,2.7594,2.7594,2.7637,2.7641,2.7646,2.7681,2.7661,2.7663,2.7664,2.7745,2.7746,2.7747,0,0,0,0,0,0,2.749,2.7497,2.7562,2.7534,2.7542,2.7563,2.758,2.7583,2.7594,2.7616,2.7619,2.7602,2.7637,2.7642,2.7671,2.7683,2.7664,2.7666,2.7745,2.7746,2.7747,2.7751,0,0,0,0,0,0,2.7487,2.7497,2.7508,2.7534,2.7544,2.7587,2.7581,2.7585,2.7599,2.7599,2.7623,2.7627,2.7637,2.7667,2.7673,2.7686,2.7668,2.7744,2.7745,2.7746,2.775,2.7752,2.7754,0,0,0,0,0,2.7484,2.7506,2.7508,2.7516,2.7559,2.7588,2.7593,2.7605,2.76,2.7611,2.7625,2.7626,2.768,2.767,2.7677,2.769,2.7743,2.7745,2.7746,2.7749,2.7752,2.7754,0,0,0,0,0,0,2.7479,2.751,2.7513,2.7544,2.7564,2.7589,2.7604,2.7607,2.7628,2.7627,2.7639,2.7645,2.7673,2.7684,2.7672,2.7719,2.7711,2.7714,2.7711,2.7713,2.7716,2.7713,2.767,0,0,0,0,0,2.7482,2.7505,2.753,2.7555,2.7565,2.7583,2.7596,2.7603,2.7623,2.7631,2.7647,2.7666,2.7687,2.7701,2.7721,2.7751,2.7757,2.7764,2.7766,2.7768,2.7771,2.7788,2.7792,2.7753,2.7753,2.7753,0,0,2.7488,2.7508,2.7521,2.7555,2.7571,2.7593,2.7589,2.7613,2.7629,2.7634,2.7663,2.7675,2.7696,2.7726,2.774,2.7736,2.7783,2.777,2.7771,2.7773,2.779,2.7794,2.7797,2.7754,2.7754,2.7754,0,0,2.7511,2.7527,2.7551,2.7567,2.7592,2.7604,2.7609,2.7635,2.7643,2.7672,2.7677,2.7696,2.7732,2.7748,2.776,2.7789,2.7792,2.7795,2.7807,2.7824,2.7827,2.783,2.7841,2.7845,2.7798,2.7798,2.7798,0,2.7514,2.7549,2.7562,2.7586,2.7601,2.7608,2.7632,2.7647,2.7676,2.7686,2.7682,2.7729,2.7743,2.7777,2.7784,2.7794,2.7801,2.7793,2.7826,2.7829,2.7831,2.7842,2.7846,2.7798,2.7798,2.7798,2.7798,0,2.7553,2.7577,2.7593,2.7624,2.764,2.7664,2.768,2.7695,2.7701,2.7713,2.7742,2.776,2.7785,2.7793,2.7799,2.7828,2.7825,2.7823,2.7816,2.7835,2.7846,2.785,2.7799,2.7799,2.7799,2.7799,0,0,2.7574,2.7612,2.7618,2.7632,2.766,2.7679,2.7702,2.7728,2.7741,2.7761,2.7781,2.7812,2.7811,2.7825,2.7832,2.7847,2.787,2.7843,2.7844,2.7849,2.7905,2.7907,2.7911,2.7871,2.7872,2.7873,2.7903,0,2.7601,2.7645,2.7658,2.7695,2.7717,2.7724,2.7745,2.7764,2.7776,2.7796,2.7808,2.7831,2.7827,2.7836,2.7851,2.7864,2.7882,2.7862,2.789,2.7891,2.7886,2.7917,2.7919,2.7947,2.7907,2.7908,2.7908,0,2.7638,2.766,2.77,2.7726,2.7736,2.7755,2.778,2.7799,2.7821,2.7828,2.7845,2.7851,2.7875,2.7866,2.79,2.7887,2.7899,2.7907,2.7908,2.7912,2.7902,2.7922,2.7956,2.796,2.7915,2.7914,2.7914,0,2.765,2.769,2.772,2.7732,2.7763,2.7776,2.7789,2.781,2.7825,2.7846,2.7856,2.7879,2.7892,2.791,2.7922,2.7914,2.7955,2.7947,2.7962,2.7962,2.7971,2.7971,2.8008,2.7977,2.7977,2.7977,2.7977,0,2.7679,2.7703,2.7726,2.7744,2.7772,2.7786,2.7812,2.7825,2.7844,2.7864,2.7871,2.789,2.7904,2.7924,2.7934,2.7961,2.7966,2.7973,2.7975,2.7973,2.7972,2.7982,2.7981,2.7978,2.7978,2.7978,2.7978,0,2.7698,2.7715,2.7747,2.7774,2.7782,2.7801,2.7823,2.7841,2.7853,2.7879,2.7886,2.7904,2.7929,2.7943,2.7973,2.7979,2.801,2.8011,2.8003,2.8005,2.802,2.8019,2.8066,2.8073,2.8036,2.8036,2.8037,0,2.7716,2.7735,2.7765,2.778,2.7794,2.7817,2.7833,2.7847,2.7863,2.789,2.7904,2.7929,2.795,2.7989,2.8005,2.8028,2.803,2.8045,2.8034,2.8031,2.8032,2.8031,2.8033,2.8047,2.8048,2.8048,2.8048,0,2.7746,2.7754,2.7777,2.7804,2.7823,2.7844,2.7864,2.7876,2.7893,2.791,2.7937,2.7953,2.7985,2.801,2.8035,2.8047,2.8051,2.8052,2.8057,2.8055,2.8051,2.8054,2.801,2.8051,2.805,2.805,2.805,2.805,2.7766,2.7784,2.7808,2.7834,2.7851,2.7871,2.7889,2.7904,2.7927,2.7955,2.7961,2.7989,2.801,2.8044,2.8057,2.8079,2.8076,2.8083,2.8085,2.8087,2.8088,2.8046,2.8083,2.8083,2.8083,2.8083,2.8083,0,2.7798,2.7814,2.7838,2.7868,2.7888,2.789,2.7913,2.793,2.7955,2.7975,2.7996,2.8026,2.8051,2.8069,2.8094,2.8107,2.811,2.8113,2.8113,2.8116,2.8088,2.8082,2.8111,2.8111,2.8111,2.8111,2.8111,2.8111,2.7817,2.7848,2.7858,2.7897,2.7913,2.7941,2.7954,2.7972,2.7989,2.8023,2.8044,2.8056,2.8075,2.8102,2.8124,2.8129,2.8138,2.8142,2.8147,2.8121,2.8118,2.8115,2.8109,2.8144,2.8144,2.8173,2.8173,2.8173]}]]